Location: M�nchen
(48.1404°N, 11.6043°E)
Time: 20:18:15
(UTC+01:00)

ISS - Pass Details

Date: 10 January 2018
Orbit: 402 x 407 km, 51.6° (Epoch: 20 January)

Event Time Altitude Azimuth Distance (km) Brightness Sun altitude
Exits shadow 04:58:53 14° 74° (ENE) 1,257 -0.6 -29.7°
Drops below altitude 10° 04:59:26 10° 77° (ENE) 1,468 -0.1 -29.6°
Sets 05:01:35 0° 84° (E) 2,329 1.2 -29.3°
